Temple, TX

3:18 PM CST on November 18, 2019 (GMT -0600)
Draughon-Miller Central Texas Regional

Weather History for KTPL - September, 2019

Change the Weather History Date:

Monday, September 16, 2019

  Actual Average Record
Temperature  
Mean Temperature 83 °F -  
Max Temperature 96 °F 87 °F 98 °F (2006)
Min Temperature 71 °F 65 °F 51 °F (2008)
Cooling Degree Days 18    
Growing Degree Days 33 (Base 50)    
Moisture  
Dew Point 66 °F    
Average Humidity 58    
Maximum Humidity 91    
Minimum Humidity 36    
Precipitation  
Precipitation 0.00 in - - ()
Sea Level Pressure  
Sea Level Pressure 29.97 in    
Wind  
Wind Speed 6 mph (East)    
Max Wind Speed 13 mph    
Max Gust Speed 20 mph    
Visibility 10 miles    
Events      
Averages and records for this station are not official NWS values.
T = Trace of Precipitation, MM = Missing Value Source: NWS Daily Summary

Daily Weather History Graph

Daily Weather History Graph

Search for Another Location

Airport or City:

Astronomy

Sep. 16, 2019 Rise Set
Actual Time 7:14 AM CDT 7:34 PM CDT
Civil Twilight 6:50 AM CDT 7:58 PM CDT
Nautical Twilight 6:21 AM CDT 8:26 PM CDT
Astronomical Twilight 5:52 AM CDT 8:55 PM CDT
Moon 9:17 PM CDT (9/16) 9:16 AM CDT (9/16)
Length of Visible Light 13h 08m
Length of Day
12h 19m
Waning Gibbous, 94% of the Moon is Illuminated
Sep 16
Waning Gibbous
Sep 21
Last Quarter
Sep 28
New
Oct 5
First Quarter
Oct 13
Full

Hourly Weather History & Observations

Time (CDT) Temp. Heat Index Dew Point Humidity Pressure Visibility Wind Dir Wind Speed Gust Speed Precip Events Conditions
12:51 AM 79.0 °F - 64.9 °F 62% 30.00 in 10.0 mi East 5.8 mph - N/A   Clear
1:51 AM 78.1 °F - 66.0 °F 66% 30.01 in 10.0 mi SE 4.6 mph - N/A   Clear
2:51 AM 78.1 °F - 66.0 °F 66% 30.01 in 10.0 mi SSE 3.5 mph - N/A   Clear
3:51 AM 77.0 °F - 66.9 °F 71% 30.00 in 10.0 mi SSW 5.8 mph - N/A   Clear
4:51 AM 75.0 °F - 66.9 °F 76% 30.00 in 10.0 mi Calm Calm - N/A   Clear
5:51 AM 73.9 °F - 66.9 °F 79% 30.00 in 10.0 mi Calm Calm - N/A   Clear
6:51 AM 71.1 °F - 68.0 °F 90% 30.01 in 10.0 mi NW 4.6 mph - N/A   Clear
7:51 AM 72.0 °F - 69.1 °F 91% 30.01 in 10.0 mi NNW 5.8 mph - N/A   Clear
8:51 AM 79.0 °F - 68.0 °F 69% 30.03 in 10.0 mi NNW 6.9 mph - N/A   Clear
9:51 AM 84.9 °F 87.6 °F 66.9 °F 55% 30.03 in 10.0 mi NW 6.9 mph - N/A   Clear
10:51 AM 90.0 °F 92.8 °F 66.9 °F 46% 30.03 in 10.0 mi North 6.9 mph - N/A   Clear
11:51 AM 93.0 °F 97.4 °F 68.0 °F 44% 30.01 in 10.0 mi Variable 4.6 mph - N/A   Mostly Cloudy
12:51 PM 93.9 °F 97.5 °F 66.9 °F 41% 29.99 in 10.0 mi East 11.5 mph 16.1 mph N/A   Scattered Clouds
1:51 PM 95.0 °F 97.9 °F 66.0 °F 38% 29.96 in 10.0 mi ENE 9.2 mph 19.6 mph N/A   Partly Cloudy
2:51 PM 95.0 °F 97.4 °F 64.9 °F 37% 29.94 in 10.0 mi East 11.5 mph - N/A   Partly Cloudy
3:51 PM 95.0 °F 97.0 °F 64.0 °F 36% 29.92 in 10.0 mi East 12.7 mph 17.3 mph N/A   Clear
4:51 PM 93.9 °F 95.2 °F 63.0 °F 36% 29.90 in 10.0 mi East 12.7 mph 18.4 mph N/A   Partly Cloudy
5:51 PM 93.9 °F 95.2 °F 63.0 °F 36% 29.90 in 10.0 mi East 10.4 mph - N/A   Clear
6:51 PM 91.9 °F 92.9 °F 63.0 °F 38% 29.91 in 10.0 mi East 11.5 mph - N/A   Clear
7:51 PM 87.1 °F 88.3 °F 64.0 °F 46% 29.91 in 10.0 mi East 8.1 mph - N/A   Clear
8:51 PM 84.0 °F 85.4 °F 64.0 °F 51% 29.92 in 10.0 mi East 8.1 mph - N/A   Clear
9:51 PM 82.9 °F 86.5 °F 69.1 °F 63% 29.94 in 10.0 mi ESE 11.5 mph - N/A   Clear
10:51 PM 81.0 °F 84.4 °F 70.0 °F 69% 29.95 in 10.0 mi ESE 10.4 mph - N/A   Clear
11:51 PM 78.1 °F - 70.0 °F 76% 29.95 in 10.0 mi SSE 5.8 mph - N/A   Clear